Location: Newark
(34.1333°N, 7.9667°W)
Time: 01:59:12
(UTC+00:00)

ITAMSAT 1 - Visible Passes

Search period start: 16 April 2024 00:00
Search period end: 26 April 2024 00:00
Orbit: 783 x 794 km, 98.8° (Epoch: 15 April)

Date Brightness Start Highest point End Pass type
(mag) Time Alt. Az. Time Alt. Az. Time Alt. Az.
16 Apr 8.5 20:17:59 23° ESE 20:20:08 32° ENE 20:24:44 10° N visible
16 Apr 9.4 21:58:41 25° WSW 21:59:30 26° W 22:03:48 10° NW visible
17 Apr 9.3 19:47:41 11° E 19:50:35 17° ENE 19:53:49 10° NNE visible
17 Apr 8.3 21:28:23 43° SW 21:29:32 51° W 21:34:38 10° NNW visible
18 Apr 7.5 20:58:05 46° SSE 20:59:41 79° ENE 21:04:55 10° N visible
19 Apr 8.2 20:27:47 27° ESE 20:29:57 39° ENE 20:34:47 10° N visible
19 Apr 9.6 22:08:28 20° WSW 22:09:27 21° W 22:13:18 10° NW visible
20 Apr 9.1 19:57:28 14° ESE 20:00:20 21° ENE 20:04:08 10° NNE visible
20 Apr 8.7 21:38:10 35° SW 21:39:26 41° W 21:44:22 10° NNW visible
21 Apr 9.7 19:30:04 10° ENE 19:30:53 10° ENE 19:31:42 10° NE visible
21 Apr 7.6 21:07:53 45° S 21:09:32 83° WSW 21:14:48 10° NNW visible
22 Apr 7.9 20:37:34 30° SE 20:39:46 49° ENE 20:44:48 10° N visible
22 Apr 9.9 22:18:16 15° WSW 22:19:24 16° W 22:22:37 10° NW visible
23 Apr 8.8 20:07:16 16° ESE 20:10:07 25° ENE 20:14:21 10° NNE visible
23 Apr 9.0 21:47:58 28° SW 21:49:21 33° W 21:54:02 10° NW visible
24 Apr 9.5 19:38:16 10° E 19:40:37 13° ENE 19:42:58 10° NE visible
24 Apr 7.9 21:17:40 41° S 21:19:25 67° WSW 21:24:37 10° NNW visible
25 Apr 7.7 20:47:22 33° SE 20:49:36 62° ENE 20:54:45 10° N visible
25 Apr 10.1 22:28:03 12° WSW 22:29:21 13° W 22:31:39 10° WNW visible
